Presure
126 125 130 169 132 141 140 176 136 145 143 142 145 150 154 120 156 131 134 117 121 148 185 150 121 141 137 138 153 210 197 161 209 146 184 174 246 263 288 353 335 348 364 336 306 377 269
130 119 123 131 120 150 127 140 142 143 148 144 147 140 147 148 139 154 144 142 119 126 145 142 131 111 140 136 137 125 144 125 138 174 145 135 234 254 346 366 267 354 370 353 361 360 306
162 190 121 122 129 182 202 129 134 131 143 141 141 142 154 152 134 137 155 158 129 146 161 153 137 141 143 140 134 158 139 137 119 133 240 140 219 247 266 364 348 184 358 343 379 357 370
168 173 186 153 173 132 123 124 180 129 130 133 198 194 144 137 139 140 193 146 211 161 135 134 136 124 132 143 130 132 236 119 186 135 130 233 179 239 246 304 332 320 324 339 354 394 356
187 187 189 159 139 175 192 120 120 144 120 153 127 132 127 133 146 185 138 136 170 142 153 139 141 167 181 107 135 141 144 215 132 187 146 203 197 205 240 256 267 326 325 323 335 369 370
173 174 180 192 154 167 176 185 137 166 194 152 119 158 125 120 135 139 145 185 141 133 133 128 125 135 145 205 130 134 142 146 141 166 206 149 227 223 233 246 279 349 338 322 319 340 369
177 153 170 183 171 157 191 175 183 190 189 204 186 197 199 202 130 132 161 141 139 162 167 116 142 160 227 128 131 135 220 183 141 145 117 142 134 225 173 180 250 355 352 348 336 332 339
169 151 179 194 185 181 165 135 199 206 202 198 198 135 192 186 180 140 130 192 205 132 154 144 138 139 168 168 136 191 133 138 176 183 150 169 125 161 219 202 239 254 174 351 350 335 331
189 163 177 192 191 187 200 201 203 192 198 208 176 203 199 194 195 179 148 191 139 148 168 137 134 183 125 129 175 188 178 133 140 185 157 185 207 149 195 165 230 239 149 350 352 343 337
183 182 196 191 194 204 200 203 200 205 207 194 189 191 204 194 188 195 211 143 167 142 209 151 142 205 159 215 201 199 232 147 152 139 217 149 223 139 205 156 220 225 241 293 351 343 356
194 196 188 189 200 195 190 212 198 203 202 193 198 194 196 188 202 208 185 200 203 202 206 148 210 217 214 134 235 227 232 228 232 201 147 223 149 169 141 140 164 220 230 250 292 347 346
177 194 206 205 206 213 193 199 198 186 196 200 195 201 191 201 199 197 207 209 202 205 202 207 209 220 227 213 231 234 225 162 232 213 215 202 154 156 218 173 150 208 222 230 257 295 348
166 213 206 209 199 210 193 182 203 196 195 191 195 194 201 201 198 195 200 203 208 194 209 210 218 226 223 216 226 191 224 191 238 201 217 226 214 154 145 200 140 214 219 224 235 268 296
197 198 215 200 202 196 202 198 197 196 195 196 197 196 195 201 201 205 211 209 211 210 210 216 225 227 223 155 220 162 230 227 236 207 216 190 177 225 213 134 173 155 214 211 221 238 275
188 200 185 202 197 194 183 188 202 202 210 207 208 213 197 158 214 217 218 217 208 199 228 227 217 226 216 223 228 185 247 221 207 220 212 215 224 194 205 218 205 210 205 216 217 225 243
194 204 202 206 193 214 191 207 210 210 211 199 219 192 221 222 225 227 225 220 211 221 220 235 217 222 236 213 241 225 232 224 192 205 182 211 159 208 206 127 160 209 158 195 212 214 226
242 218 177 188 175 198 178 189 192 176 235 228 231 220 235 236 225 227 218 236 237 225 236 233 232 233 201 228 229 219 223 222 220 220 212 208 212 152 207 228 212 175 155 171 160 211 215
197 201 201 195 163 172 186 190 213 215 217 219 218 217 209 206 209 215 225 220 216 221 224 234 202 230 214 213 209 205 210 214 216 219 214 204 219 206 214 191 207 160 216 199 183 214 212
192 196 214 173 196 198 195 177 197 222 197 223 226 205 201 196 197 183 197 229 233 210 214 224 224 221 221 215 206 223 217 210 217 206 212 207 201 212 210 215 199 214 212 123 181 160 209
223 174 213 193 224 206 224 214 254 251 243 248 249 266 249 247 209 214 245 225 245 236 226 187 231 233 234 234 228 235 219 215 216 211 209 199 199 203 204 206 182 182 215 211 160 195 210
225 214 208 211 203 214 228 232 246 252 248 251 261 237 237 244 231 243 251 243 241 235 231 215 228 227 232 229 226 223 229 212 210 217 211 204 199 203 201 208 194 186 211 235 205 204 196
214 226 224 202 230 233 241 230 254 232 243 259 229 218 156 251 251 246 241 232 229 233 222 219 225 226 227 223 224 218 219 226 223 197 222 209 215 208 213 215 209 190 208 224 206 210 182
220 231 221 222 231 235 232 247 243 242 253 238 247 255 240 234 244 241 245 251 242 233 233 240 238 230 233 234 238 238 246 242 242 231 225 211 210 201 215 208 202 193 197 206 214 229 210
212 224 225 234 242 242 234 250 251 242 177 241 251 240 243 256 244 246 243 239 238 243 244 196 224 228 253 251 249 254 251 254 247 245 232 237 227 216 218 196 214 202 206 222 198 216 166
218 231 239 243 282 258 263 265 259 150 250 253 253 224 243 262 250 200 249 238 252 257 257 253 245 257 262 263 262 270 276 291 165 289 283 254 230 239 233 228 213 201 204 199 193 231 199
227 220 238 243 289 273 256 249 244 252 256 250 247 250 269 268 262 254 252 261 259 251 253 252 255 261 268 277 289 289 297 306 312 320 311 279 295 268 243 239 237 216 214 195 195 235 192
231 243 250 271 248 249 244 249 251 250 246 241 248 257 258 273 262 244 253 253 257 262 265 255 268 279 273 283 290 289 305 295 317 359 358 304 302 286 279 270 274 233 213 223 227 223 226
246 279 270 256 258 250 248 256 245 240 244 252 252 266 267 242 257 260 261 262 264 273 286 284 277 285 279 281 329 354 317 303 352 350 367 356 319 316 316 307 263 235 233 228 215 238 235
269 260 257 255 246 248 242 236 253 258 264 261 248 262 249 259 289 283 121 129 117 136 275 281 290 293 96 369 340 336 334 347 357 382 364 371 352 336 334 312 308 258 238 239 240 240 235
Wind_Speed
24 24 25 24 22 24 26 21 22 26 26 26 28 30 26 24 33 26 27 13 12 34 42 35 18 33 29 29 39 45 47 36 46 36 41 39 62 71 37 26 25 20 25 43 46 56 105
20 23 26 28 21 23 24 29 30 30 32 31 32 31 35 35 29 37 36 36 28 28 35 34 26 18 36 32 32 25 35 21 25 39 35 25 54 67 48 25 24 24 19 24 46 56 106
30 39 24 27 29 31 38 30 31 29 35 34 34 35 40 40 35 34 40 41 25 38 41 40 32 38 38 39 29 42 31 30 22 29 53 30 48 64 75 31 24 26 8 15 20 55 65
32 33 42 33 32 31 31 30 31 31 33 34 35 34 39 39 40 41 40 44 37 42 36 34 36 24 32 27 34 25 48 22 41 30 29 49 35 55 65 64 28 35 20 16 15 22 59
49 49 42 34 32 39 42 30 29 30 28 35 33 37 33 37 44 40 43 41 42 44 45 41 42 43 40 23 39 42 41 46 26 38 36 40 38 40 61 72 22 27 23 16 11 17 40
47 42 45 47 42 45 42 43 34 36 45 42 30 38 35 27 43 45 37 53 44 41 40 33 28 41 43 49 32 36 41 25 33 34 41 33 43 45 56 63 67 23 20 22 15 13 20
53 34 46 54 46 42 50 46 49 50 49 53 45 47 46 46 44 46 56 49 47 53 50 28 36 45 55 35 34 40 47 46 33 33 24 33 27 42 33 30 67 34 20 17 19 13 15
51 39 55 56 53 51 46 37 55 54 55 53 53 42 51 48 46 45 46 53 48 45 48 51 50 44 48 46 45 44 35 36 43 41 35 30 25 31 38 38 58 66 22 21 11 11 15
57 52 50 58 59 58 61 59 58 50 54 54 48 56 55 51 49 54 43 61 44 45 49 50 47 52 37 38 44 50 49 34 39 40 44 33 39 31 33 25 50 57 24 31 18 11 11
59 60 60 59 58 62 61 60 59 59 57 51 50 53 60 56 45 53 67 50 48 43 61 49 52 56 51 54 52 51 54 50 32 33 37 34 41 28 33 32 38 42 56 65 28 21 11
59 60 57 59 62 60 55 66 56 57 60 53 56 56 59 49 67 69 47 61 62 62 59 55 62 65 57 47 58 53 52 50 47 36 36 40 29 28 25 28 28 38 48 57 61 27 18
56 63 65 63 65 66 57 61 58 50 59 63 59 65 56 67 65 63 68 69 64 66 61 64 65 69 64 54 59 51 50 53 46 39 33 34 27 31 32 24 30 33 39 45 56 60 24
57 67 67 68 61 66 61 59 63 61 61 60 63 62 70 68 63 64 67 70 73 60 70 68 71 66 63 59 58 51 50 45 44 40 40 37 28 29 25 25 27 29 36 40 46 54 57
66 62 71 64 67 63 69 68 67 67 67 68 69 66 64 72 69 76 77 74 75 75 73 74 69 64 62 55 54 52 52 46 42 39 41 35 29 36 28 27 26 27 27 24 33 45 53
58 68 59 72 68 66 58 64 75 75 81 81 81 83 69 61 82 81 79 78 76 66 79 74 65 63 64 62 56 49 49 44 40 39 39 40 36 29 27 27 24 23 22 28 28 32 44
66 74 74 76 67 82 68 82 85 87 86 75 91 74 87 85 83 81 79 78 75 78 72 71 68 66 61 56 53 47 43 44 43 41 39 36 36 22 24 29 28 22 21 19 21 23 32
70 84 61 66 60 72 62 68 71 65 78 85 82 75 77 80 79 78 76 72 70 70 70 69 65 62 58 52 48 46 40 44 45 42 44 38 37 37 26 28 23 23 26 21 21 17 23
72 74 74 74 62 66 70 71 81 82 84 84 84 82 79 79 81 78 78 79 77 77 75 70 69 64 63 61 54 55 51 51 48 42 44 41 38 34 31 30 25 32 19 24 20 13 17
75 78 75 69 77 81 79 68 78 84 79 87 84 80 79 78 79 74 75 81 80 78 76 73 72 71 69 67 62 58 56 59 52 53 46 46 44 41 37 31 27 24 21 34 24 26 9
74 68 83 80 81 87 82 88 76 79 79 79 79 72 77 75 80 78 75 78 78 78 77 68 74 72 71 69 68 58 59 56 57 58 55 50 50 47 44 35 32 28 21 22 29 23 12
80 84 85 85 82 83 81 80 85 80 81 78 71 75 76 73 78 74 70 72 75 78 78 74 77 77 77 74 73 70 63 62 60 61 63 57 54 52 50 50 39 36 28 29 25 22 23
82 84 84 85 84 84 86 81 86 80 78 77 77 80 50 67 73 75 77 78 78 78 81 85 85 84 85 83 81 77 75 75 65 66 64 65 56 60 55 54 46 41 43 31 31 27 33
85 89 86 87 91 89 86 87 85 82 81 78 77 71 71 74 73 75 78 79 83 83 84 89 89 87 90 91 86 85 83 83 81 77 74 70 68 64 57 60 42 41 56 36 33 34 32
85 91 92 93 94 91 88 89 87 83 56 81 77 77 75 73 76 78 81 82 84 87 85 76 83 84 94 96 96 92 89 87 80 78 82 79 79 75 66 61 52 59 58 56 34 39 39
92 98 99 96 86 88 86 83 84 64 79 79 76 71 76 74 77 74 82 82 86 84 87 89 95 95 97 99 99 96 93 86 57 83 84 85 83 85 82 73 57 53 69 51 43 48 43
101 93 101 97 81 79 83 83 84 84 83 82 81 80 79 78 80 84 85 87 87 86 89 91 93 97 99 97 98 94 89 85 81 79 77 87 87 91 82 78 68 63 72 62 48 47 54
103 104 101 89 88 85 84 85 87 86 85 84 88 87 84 83 81 84 88 87 92 94 93 94 101 101 100 103 99 94 91 87 86 85 76 83 85 85 83 84 72 70 71 80 62 60 67
104 87 85 87 85 86 84 85 87 89 91 90 91 92 88 84 84 90 93 93 98 104 105 99 97 100 99 99 100 97 89 85 86 79 81 79 81 82 83 84 64 69 76 79 66 69 65
87 89 86 84 86 84 86 88 92 93 94 94 93 96 96 94 91 91 18 18 36 34 105 98 102 103 36 98 94 91 86 82 82 78 76 75 79 80 83 75 67 77 77 78 74 69 68
Wind_Direction
287 290 285 302 287 283 282 291 285 282 281 281 282 281 287 265 281 295 267 244 264 289 291 291 279 305 311 316 304 313 310 307 319 310 324 322 350 356 337 328 329 313 255 235 229 217 211
280 284 288 282 290 303 284 280 279 279 279 278 278 281 280 282 293 280 286 290 265 291 290 295 305 283 304 311 315 298 309 298 309 317 309 311 346 356 355 336 313 324 271 246 227 215 207
274 314 283 284 285 300 325 282 280 281 278 280 279 278 280 278 291 295 282 283 300 289 285 286 294 301 302 306 312 304 309 311 293 303 339 309 336 357 2 350 346 288 316 280 256 220 214
294 293 311 277 297 284 282 279 295 280 281 280 322 295 281 285 283 285 292 284 308 293 290 300 300 301 305 303 299 306 328 295 322 303 303 341 325 356 2 4 346 346 352 333 287 242 218
306 306 310 274 282 301 313 283 282 299 289 288 287 283 288 285 278 300 287 290 300 289 290 297 296 297 314 279 307 305 305 328 295 324 302 333 330 341 2 4 324 335 332 330 331 262 223
306 306 307 309 266 290 304 307 291 293 311 291 288 294 288 285 285 281 294 287 284 293 294 298 294 297 299 310 299 303 302 301 304 311 335 312 344 347 360 4 6 349 315 308 307 293 243
302 275 304 303 302 277 308 299 305 306 309 313 307 314 306 316 287 287 288 280 285 287 290 269 285 297 323 295 296 300 326 310 299 304 282 298 298 351 323 341 6 11 354 312 279 279 256
303 280 301 305 303 302 285 295 310 310 309 311 311 286 311 291 308 289 284 314 315 284 291 281 285 285 295 295 290 314 294 296 302 314 304 322 286 316 347 353 6 7 313 0 304 268 258
296 298 297 302 303 302 309 308 307 306 308 309 287 312 312 311 312 300 290 303 286 291 300 284 284 304 282 287 300 302 304 292 296 313 296 325 336 301 333 328 6 7 303 15 8 308 271
292 295 298 298 301 302 304 303 303 303 304 305 305 308 310 311 302 313 314 288 294 291 319 289 282 313 282 314 307 307 321 288 298 293 333 298 343 293 338 307 5 10 5 17 6 7 349
293 294 295 297 302 304 303 299 303 300 307 304 307 307 308 305 308 308 299 310 310 310 313 279 316 317 310 283 319 316 320 312 318 309 296 332 295 307 294 300 309 6 5 7 18 10 355
294 297 300 300 301 296 303 303 304 301 307 305 305 306 303 308 308 308 307 305 306 307 308 312 313 313 311 312 315 313 315 288 314 309 317 322 296 301 340 312 301 355 4 6 10 19 5
289 299 301 302 299 301 300 296 305 304 304 301 303 301 304 304 301 301 304 305 305 299 307 308 308 307 306 307 312 300 311 300 310 305 316 325 324 298 288 323 292 351 1 3 6 11 19
301 300 300 302 304 303 302 303 302 302 301 301 300 299 299 301 301 302 301 301 300 301 304 304 304 302 302 283 308 288 309 310 309 307 312 306 304 334 322 276 298 295 354 0 7 5 12
293 303 294 302 302 302 297 301 300 298 298 298 299 299 296 287 298 298 297 298 298 298 298 298 301 299 301 302 305 293 306 302 299 302 305 312 316 309 312 327 319 329 324 356 1 7 5
298 298 298 297 295 293 292 293 293 294 295 297 294 293 295 295 293 294 294 293 294 294 295 294 296 297 298 298 300 300 301 296 290 295 290 303 286 303 302 262 287 312 279 321 353 358 3
289 288 291 293 289 288 291 296 297 282 289 289 289 290 291 291 294 294 294 291 290 293 292 292 292 293 293 293 295 295 294 293 290 292 294 293 299 279 294 311 305 286 272 283 279 350 357
293 291 293 295 286 288 292 293 294 293 293 292 294 294 292 295 294 293 289 292 294 292 292 291 292 288 290 289 289 291 290 285 286 287 287 287 293 290 294 289 289 276 298 290 286 353 347
292 294 291 290 294 295 293 287 293 289 294 289 289 291 292 293 290 288 291 287 285 292 291 289 287 287 287 286 285 282 282 283 282 284 280 284 287 287 289 289 277 289 291 250 272 267 327
290 288 290 294 289 291 287 289 294 292 291 292 293 290 289 287 288 288 285 286 284 283 285 282 286 285 284 284 283 279 277 278 277 276 276 280 281 284 282 282 270 271 277 279 263 270 286
295 291 292 292 292 293 292 292 297 298 297 296 296 292 291 290 288 288 286 285 285 287 288 286 287 286 287 286 284 281 278 270 271 270 271 274 275 277 278 279 269 267 270 290 269 262 265
292 297 294 292 296 295 300 296 298 292 296 299 292 292 287 287 288 288 286 286 286 284 285 285 284 282 281 280 279 280 280 278 269 273 268 269 265 269 269 270 272 268 273 276 264 262 259
293 299 295 297 298 297 296 299 297 296 298 295 296 294 290 290 289 286 284 282 281 280 279 277 277 278 278 276 274 273 270 269 270 270 269 265 266 267 262 265 264 268 265 257 265 274 255
294 297 297 298 298 297 296 300 297 296 294 295 294 292 292 287 286 283 282 282 281 281 280 282 280 280 276 275 275 274 273 272 270 270 266 262 264 263 258 262 262 263 270 269 253 261 244
296 300 299 299 294 297 295 293 293 288 294 292 290 289 289 286 286 286 283 285 283 284 283 283 281 281 277 277 276 274 275 274 272 266 265 262 261 258 260 260 255 261 264 256 246 268 242
298 296 297 297 291 291 294 294 295 293 294 293 292 292 288 285 285 284 284 283 284 283 283 282 281 280 281 283 285 280 279 278 275 269 262 263 258 257 256 258 256 255 260 255 245 265 245
294 295 297 296 296 296 296 296 295 295 294 293 293 293 291 290 289 287 287 287 286 284 282 279 281 285 284 286 284 282 282 279 276 273 263 256 254 257 254 253 248 251 256 261 256 254 254
297 298 299 297 297 296 296 294 293 293 294 293 293 291 289 289 289 287 287 287 285 286 286 283 282 284 282 282 281 278 277 273 273 268 263 256 252 249 250 249 245 247 245 248 248 251 251
298 296 296 296 295 294 294 294 291 292 290 291 290 287 289 289 285 284 5 25 43 6 283 287 285 285 230 282 280 277 275 272 270 266 261 257 250 246 244 246 238 233 237 240 243 246 247